Weather History for KAHN - November, 2013

Change the Weather History Date:

Thursday, November 14, 2013

  Actual Average Record
Temperature  
Mean Temperature 41 °F 54 °F  
Max Temperature 59 °F 66 °F 84 °F (1931)
Min Temperature 23 °F 43 °F 23 °F (2013)
Degree Days  
Heating Degree Days 24 11  
Month to date heating degree days 172 128  
Since 1 July heating degree days 284 263  
Moisture  
Dew Point 19 °F    
Average Humidity 53    
Maximum Humidity 88    
Minimum Humidity 17    
Precipitation  
Precipitation 0.00 in 0.13 in 1.10 in (1983)
Month to date precipitation 0.41 1.66  
Year to date precipitation 50.26 40.44  
Snow  
Snow 0.00 in 0.00 in 0.00 in (2002)
Month to date snowfall 0.0 0.0  
Since 1 July snowfall 0.0 0.0  
Since 1 September snowfall 0.0 0.0  
Snow Depth 0.00 in    
Sea Level Pressure  
Sea Level Pressure 30.43 in    
Wind  
Wind Speed 0 mph (SSE)    
Max Wind Speed 6 mph    
Max Gust Speed 9 mph    
Visibility 9 miles    
Events      
T = Trace of Precipitation, MM = Missing Value Source: NWS Daily Summary

Daily Weather History Graph

Daily Weather History Graph

Search for Another Location

Airport or City:

Trip Planner

Search our weather history database for the weather conditions in past years. The results will help you decide how hot, cold, wet, or windy it might be!

Date:

Astronomy

Nov. 14, 2013 Rise Set
Actual Time 7:04 AM EST 5:30 PM EST
Civil Twilight 6:38 AM EST 5:56 PM EST
Nautical Twilight 6:08 AM EST 6:26 PM EST
Astronomical Twilight 5:38 AM EST 6:56 PM EST
Moon 3:44 PM EST (11/14) 4:06 AM EST (11/14)
Length of Visible Light 11h 18m
Length of Day
10h 25m
Waxing Gibbous, 91% of the Moon is Illuminated
Nov 14
Waxing Gibbous
Nov 17
Full
Nov 25
Last Quarter
Dec 2
New
Dec 9
First Quarter

Hourly Weather History & Observations

Time (EST) Temp. Dew Point Humidity Pressure Visibility Wind Dir Wind Speed Gust Speed Precip Events Conditions
12:51 AM 27.0 °F 21.0 °F 78% 30.49 in 9.0 mi Calm Calm - N/A   Clear
1:51 AM 27.0 °F 19.9 °F 75% 30.48 in 9.0 mi Calm Calm - N/A   Clear
2:51 AM 25.0 °F 19.9 °F 81% 30.48 in 9.0 mi Calm Calm - N/A   Clear
3:51 AM 25.0 °F 19.9 °F 81% 30.48 in 8.0 mi Calm Calm - N/A   Clear
4:51 AM 25.0 °F 19.9 °F 81% 30.48 in 8.0 mi Calm Calm - N/A   Clear
5:51 AM 24.1 °F 19.9 °F 84% 30.49 in 8.0 mi Calm Calm - N/A   Clear
6:51 AM 23.0 °F 19.0 °F 85% 30.50 in 8.0 mi Calm Calm - N/A   Clear
7:51 AM 25.0 °F 21.0 °F 85% 30.51 in 6.0 mi Calm Calm - N/A   Clear
8:51 AM 35.1 °F 26.1 °F 70% 30.52 in 6.0 mi Calm Calm - N/A   Haze
9:51 AM 42.1 °F 19.9 °F 41% 30.53 in 8.0 mi Calm Calm - N/A   Clear
10:51 AM 46.9 °F 17.1 °F 30% 30.51 in 9.0 mi Calm Calm - N/A   Clear
11:51 AM 50.0 °F 16.0 °F 26% 30.49 in 10.0 mi Calm Calm - N/A   Clear
12:51 PM 54.0 °F 15.1 °F 22% 30.43 in 10.0 mi ESE 5.8 mph - N/A   Clear
1:51 PM 55.9 °F 12.0 °F 18% 30.40 in 10.0 mi Calm Calm - N/A   Clear
2:51 PM 57.9 °F 12.9 °F 17% 30.37 in 10.0 mi Calm Calm - N/A   Clear
3:51 PM 57.9 °F 12.9 °F 17% 30.36 in 10.0 mi SSW 4.6 mph - N/A   Clear
4:51 PM 55.9 °F 14.0 °F 19% 30.35 in 9.0 mi Calm Calm - N/A   Clear
5:51 PM 48.9 °F 18.0 °F 29% 30.36 in 10.0 mi Calm Calm - N/A   Clear
6:51 PM 42.1 °F 21.9 °F 45% 30.36 in 10.0 mi Calm Calm - N/A   Clear
7:51 PM 43.0 °F 19.0 °F 38% 30.35 in 10.0 mi Calm Calm - N/A   Clear
8:51 PM 35.1 °F 24.1 °F 64% 30.36 in 10.0 mi Calm Calm - N/A   Clear
9:51 PM 37.9 °F 19.9 °F 48% 30.35 in 9.0 mi Calm Calm - N/A   Clear
10:51 PM 35.1 °F 23.0 °F 61% 30.35 in 8.0 mi Calm Calm - N/A   Clear
11:51 PM 36.0 °F 21.9 °F 57% 30.34 in 8.0 mi Calm Calm - N/A   Clear